Location: Ch�risy
(50.2331°N, 2.9131°E)
Time: 20:07:52
(UTC+00:00)

YAOGAN 1 - Pass Details

Date: 17 January 2021
Orbit: 618 x 620 km, 97.9° (Epoch: 27 February)

Event Time Altitude Azimuth Distance (km) Brightness Sun altitude
Rises 17:38:41 0° 142° (SE) 2,889 5.8 -12.6°
Reaches altitude 10° 17:40:58 10° 134° (SE) 1,987 4.9 -13.0°
Maximum altitude 17:44:56 37° 67° (ENE) 977 3.1 -13.6°
Drops below altitude 10° 17:48:56 10° 1° (N) 2,001 5.0 -14.2°
Sets 17:51:15 0° 353° (N) 2,912 5.9 -14.5°
